Stations météo

réclame
Mon MeteoGroup
J6-A, Pays-Bas (6211): Température de l'air & dewpoint: 19.09.2018 13:00:00 - 25.09.2018 13:00:00 (CEST)J6-A, Pays-Bas (6211): Vitesse du vent & gusts: 19.09.2018 13:00:00 - 25.09.2018 13:00:00 (CEST)J6-A, Pays-Bas (6211): Direction du vent: 19.09.2018 13:00:00 - 25.09.2018 13:00:00 (CEST)J6-A, Pays-Bas (6211): reduced air pressure: 19.09.2018 13:00:00 - 25.09.2018 13:00:00 (CEST)J6-A, Pays-Bas (6211): visibility: 19.09.2018 13:00:00 - 25.09.2018 13:00:00 (CEST)
Date & Time tt [°C] td [°C] ff [km/h] ff [knt] fx [km/h] fx [knt] dd ppp [hPa] vv [km]
25.09.2018 13:00:00 13,3 7,7 24 13 25 14 SW 1037,8 10
25.09.2018 12:00:00 13,2 7,7 24 13 25 14 WSW 1038,3 10
25.09.2018 11:00:00 13,4 8,3 22 12 25 14 SW 1038,4 10
25.09.2018 10:00:00 13,2 7,2 22 12 25 14 SW 1037,9 10
25.09.2018 09:00:00 13,1 7,5 16 9 22 12 WSW 1037,4 10
25.09.2018 08:00:00 12,9 7,3 16 9 - - WSW 1037,0 10
25.09.2018 07:00:00 12,6 7,3 11 6 14 8 WSW 1036,9 10
25.09.2018 06:00:00 12,4 4,8 18 10 22 12 W 1037,0 10
25.09.2018 05:00:00 12,7 6,8 21 11 25 14 WNW 1037,1 10
25.09.2018 04:00:00 12,5 6,2 22 12 25 14 WNW 1037,3 10
25.09.2018 03:00:00 12,5 6,5 24 13 25 14 WNW 1037,4 10
25.09.2018 02:00:00 12,4 5,5 22 12 29 16 WNW 1037,3 10
25.09.2018 01:00:00 12,2 4,6 21 11 25 14 WNW 1037,3 10
25.09.2018 00:00:00 12,2 5,0 26 14 29 16 WNW 1037,0 10
24.09.2018 23:00:00 12,1 4,9 26 14 36 19 NW 1036,8 10
24.09.2018 22:00:00 12,0 4,9 31 17 36 19 NW 1036,5 10
24.09.2018 21:00:00 12,2 4,9 34 18 36 19 NW 1036,1 10
24.09.2018 20:00:00 12,2 5,1 39 21 40 21 NW 1035,5 10
24.09.2018 19:00:00 12,1 6,8 39 21 40 21 WNW 1035,5 10
24.09.2018 18:00:00 12,1 4,8 39 21 40 21 WNW 1035,2 10
24.09.2018 17:00:00 12,0 5,3 41 22 40 21 WNW 1035,4 10
24.09.2018 16:00:00 12,0 5,2 41 22 43 23 WNW 1035,3 10
24.09.2018 15:00:00 12,0 4,8 44 24 47 25 WNW 1035,0 10
24.09.2018 14:00:00 12,0 5,2 44 24 47 25 WNW 1034,7 10
24.09.2018 13:00:00 11,8 5,1 46 25 50 27 WNW 1034,2 10
24.09.2018 12:00:00 11,8 4,9 48 26 50 27 WNW 1033,8 10
24.09.2018 11:00:00 11,9 4,2 52 28 54 29 NW 1033,1 10
24.09.2018 10:00:00 12,0 5,2 54 29 54 29 NW 1032,6 10
24.09.2018 09:00:00 11,7 2,7 54 29 54 29 NW 1031,7 10
24.09.2018 08:00:00 11,8 4,1 55 30 58 31 NW 1030,4 10
24.09.2018 07:00:00 11,9 3,8 61 33 58 31 NW 1029,9 10
24.09.2018 06:00:00 12,4 5,9 59 32 61 33 NW 1029,4 10
24.09.2018 05:00:00 10,9 5,6 65 35 72 39 WNW 1029,3 10
24.09.2018 04:00:00 12,0 6,5 54 29 54 29 WNW 1028,3 10
24.09.2018 03:00:00 12,4 4,3 55 30 58 31 WNW 1027,7 10
24.09.2018 02:00:00 12,3 5,6 57 31 58 31 NW 1027,0 10
24.09.2018 01:00:00 12,4 4,9 57 31 58 31 NW 1026,1 10
24.09.2018 00:00:00 12,2 5,3 55 30 61 33 NW 1025,1 10
23.09.2018 23:00:00 12,4 5,6 59 32 65 35 NW 1024,5 10
23.09.2018 22:00:00 12,3 4,2 63 34 61 33 NW 1023,2 10
23.09.2018 21:00:00 12,4 4,6 57 31 61 33 NW 1021,8 10
23.09.2018 20:00:00 11,7 5,5 55 30 68 37 NW 1020,7 10
23.09.2018 19:00:00 12,6 4,7 61 33 65 35 NW 1019,3 10
23.09.2018 18:00:00 12,7 5,7 46 25 50 27 NW 1017,9 10
23.09.2018 17:00:00 10,9 6,1 34 18 54 29 N 1017,3 10
23.09.2018 16:00:00 12,1 6,6 35 19 50 27 N 1015,8 10
23.09.2018 15:00:00 11,0 7,6 29 16 43 23 NNE 1015,1 -
23.09.2018 14:00:00 12,5 5,7 21 11 25 14 N 1014,4 10
23.09.2018 13:00:00 12,4 5,7 24 13 29 16 N 1014,6 10
23.09.2018 12:00:00 12,8 4,8 18 10 32 18 NNW 1013,8 10
23.09.2018 11:00:00 12,7 3,7 26 14 29 16 NW 1013,5 10
23.09.2018 10:00:00 12,7 4,4 22 12 25 14 NW 1013,7 10
23.09.2018 09:00:00 12,7 3,9 16 9 25 14 - 1013,3 10
23.09.2018 08:00:00 12,6 3,7 13 7 22 12 - 1013,5 10
23.09.2018 07:00:00 12,7 3,9 15 8 22 12 - 1013,5 10
23.09.2018 06:00:00 12,8 5,1 16 9 22 12 NNW 1013,7 10
23.09.2018 05:00:00 12,8 5,0 11 6 18 10 WNW 1014,1 10
23.09.2018 04:00:00 12,8 5,5 13 7 18 10 - 1014,1 10
23.09.2018 03:00:00 12,8 5,1 13 7 22 12 NW 1014,6 10
23.09.2018 02:00:00 12,8 5,3 16 9 22 12 - 1015,0 10
23.09.2018 01:00:00 12,8 5,9 15 8 18 10 W 1015,3 10
23.09.2018 00:00:00 12,8 6,0 15 8 22 12 W 1015,3 10
22.09.2018 23:00:00 12,8 5,9 18 10 25 14 W 1015,4 10
22.09.2018 22:00:00 12,8 5,9 22 12 25 14 W 1015,6 10
22.09.2018 21:00:00 12,7 5,9 26 14 29 16 W 1015,5 10
22.09.2018 20:00:00 12,7 5,0 29 16 36 19 W 1015,5 10
22.09.2018 19:00:00 12,6 6,2 34 18 40 21 W 1015,2 10
22.09.2018 18:00:00 12,6 5,6 35 19 40 21 W 1015,3 10
22.09.2018 17:00:00 12,7 6,4 41 22 43 23 W 1015,3 10
22.09.2018 16:00:00 12,6 6,1 46 25 47 25 W 1015,8 10
22.09.2018 15:00:00 12,8 6,9 46 25 50 27 W 1015,8 10
22.09.2018 14:00:00 12,6 5,9 48 26 47 25 W 1015,4 10
22.09.2018 13:00:00 12,3 5,2 52 28 54 29 W 1015,4 10
22.09.2018 12:00:00 12,5 4,8 48 26 50 27 W 1015,7 10
22.09.2018 11:00:00 12,5 5,8 50 27 50 27 W 1015,2 10
22.09.2018 10:00:00 12,6 5,7 52 28 58 31 W 1014,8 10
22.09.2018 09:00:00 12,6 5,2 52 28 58 31 W 1014,4 10
22.09.2018 08:00:00 12,9 7,5 55 30 54 29 W 1014,0 10
22.09.2018 07:00:00 13,1 8,5 46 25 50 27 W 1014,0 -
22.09.2018 06:00:00 12,9 7,9 55 30 54 29 W 1013,5 -
22.09.2018 05:00:00 12,8 8,4 54 29 54 29 W 1013,5 -
22.09.2018 04:00:00 13,2 7,6 50 27 54 29 W 1013,1 10
22.09.2018 03:00:00 13,3 7,1 50 27 50 27 W 1012,5 10
22.09.2018 02:00:00 13,3 8,4 50 27 58 31 W 1012,0 -
22.09.2018 01:00:00 13,1 8,1 57 31 58 31 W 1011,3 -
22.09.2018 00:00:00 13,2 8,0 54 29 58 31 W 1010,0 10
21.09.2018 23:00:00 13,4 7,9 57 31 54 29 W 1008,8 -
21.09.2018 22:00:00 13,3 7,5 65 35 68 37 WNW 1007,4 49
21.09.2018 21:00:00 12,8 8,3 65 35 65 35 W 1005,8 -
21.09.2018 20:00:00 13,0 9,1 65 35 76 41 W 1004,6 -
21.09.2018 19:00:00 13,0 9,2 63 34 72 39 WSW 1004,8 10
21.09.2018 18:00:00 13,5 6,8 70 38 72 39 WSW 1004,6 10
21.09.2018 17:00:00 13,6 6,2 76 41 76 41 WSW 1003,4 10
21.09.2018 16:00:00 13,6 5,8 74 40 79 43 WSW 1003,7 10
21.09.2018 15:00:00 12,9 6,6 81 44 79 43 WSW 1003,1 -
21.09.2018 14:00:00 12,5 5,3 81 44 79 43 WSW 1001,8 -
21.09.2018 13:00:00 12,8 6,8 80 43 83 45 WSW 1001,1 -
21.09.2018 12:00:00 12,4 6,2 78 42 83 45 WSW 1000,0 -
21.09.2018 11:00:00 12,2 6,3 83 45 83 45 WSW 997,9 -
21.09.2018 10:00:00 11,7 5,5 83 45 86 47 WSW 996,8 -
21.09.2018 09:00:00 11,1 6,3 76 41 101 54 WSW 995,5 -
21.09.2018 08:00:00 11,5 7,3 83 45 108 58 WSW 993,2 -
21.09.2018 07:00:00 14,3 9,8 83 45 101 54 WSW 990,8 11
21.09.2018 06:00:00 15,6 12,3 68 37 90 49 SSW 991,4 9
21.09.2018 05:00:00 18,2 15,3 58 31 76 41 S 992,4 10
21.09.2018 04:00:00 18,1 15,5 65 35 79 43 S 994,3 8
21.09.2018 03:00:00 18,1 15,2 58 31 68 37 S 996,4 10
21.09.2018 02:00:00 18,2 15,2 50 27 61 33 S 997,6 -
21.09.2018 01:00:00 18,3 15,4 50 27 61 33 S 998,9 -
21.09.2018 00:00:00 18,5 15,4 50 27 61 33 S 1000,8 -
20.09.2018 23:00:00 18,5 15,3 50 27 65 35 S 1002,0 -
20.09.2018 22:00:00 18,6 15,1 54 29 65 35 S 1003,6 12
20.09.2018 21:00:00 18,3 14,9 54 29 65 35 S 1003,8 12
20.09.2018 20:00:00 18,1 14,7 50 27 61 33 S 1004,6 12
20.09.2018 19:00:00 17,9 14,8 43 23 54 29 S 1005,4 12
20.09.2018 18:00:00 17,7 15,5 40 21 47 25 S 1006,8 11
20.09.2018 17:00:00 15,3 14,8 22 12 25 14 SE 1008,0 26
20.09.2018 16:00:00 14,4 13,6 14 8 22 12 SE 1009,3 11
20.09.2018 15:00:00 13,7 13,1 7 4 11 6 S 1009,8 46
20.09.2018 14:00:00 13,2 12,5 11 6 18 10 SSW 1010,8 5
20.09.2018 13:00:00 13,3 12,1 11 6 14 8 SSW 1011,1 50
20.09.2018 12:00:00 12,6 11,7 11 6 18 10 SSW 1011,4 8
20.09.2018 11:00:00 12,4 11,5 7 4 18 10 S 1011,5 25
20.09.2018 10:00:00 12,1 11,3 11 6 29 16 SSW 1012,0 17
20.09.2018 09:00:00 - - - - - - - - -
20.09.2018 08:00:00 - - - - - - - - -
20.09.2018 07:00:00 - - - - - - - - -
20.09.2018 06:00:00 - - - - - - - - -
20.09.2018 05:00:00 - - - - - - - - -
20.09.2018 04:00:00 - - - - - - - - -
20.09.2018 03:00:00 - - - - - - - - -
20.09.2018 02:00:00 - - - - - - - - -
20.09.2018 01:00:00 - - - - - - - - -
20.09.2018 00:00:00 - - - - - - - - -
19.09.2018 23:00:00 - - - - - - - - -
19.09.2018 22:00:00 - - - - - - - - -
19.09.2018 21:00:00 - - - - - - - - -
19.09.2018 20:00:00 - - - - - - - - -
19.09.2018 19:00:00 - - - - - - - - -
19.09.2018 18:00:00 - - - - - - - - -
19.09.2018 17:00:00 - - - - - - - - -
19.09.2018 16:00:00 - - - - - - - - -
19.09.2018 15:00:00 - - - - - - - - -
19.09.2018 14:00:00 - - - - - - - - -
19.09.2018 13:00:00 - - - - - - - - -

tt = Température de l'air
td = dewpoint
ff = Vitesse du vent
fx = gusts
dd = Direction du vent
ppp = reduced air pressure
vv = visibility

stations d'obs. à proximité